Temperature
24 22 22 23 23 24 24 24 23 23 24 23 22 22 21 21 21 20 20 20 20 21 21 21 20 20 20 20 20 19 19 19 19 19 18 18 18 18 18 18 18 18 18 18
23 23 24 24 24 24 24 24 23 23 24 23 22 22 21 21 21 21 21 21 21 21 21 21 20 20 20 20 20 20 19 19 19 19 18 18 18 18 18 18 18 18 18 18
24 24 25 25 24 24 24 23 23 23 23 23 23 22 22 21 21 21 21 21 21 21 21 21 21 20 20 20 20 20 20 19 19 19 18 18 18 18 18 18 18 18 18 18
24 24 25 25 25 24 24 24 24 24 22 21 22 21 21 21 21 21 21 21 21 21 22 21 21 21 21 21 20 20 20 20 19 19 19 19 19 18 18 18 18 18 18 18
24 25 25 25 25 25 24 24 23 23 21 21 21 21 21 20 21 20 21 21 22 22 22 22 22 22 21 21 21 20 20 20 19 19 19 19 19 19 18 18 18 18 18 18
24 25 25 25 25 25 24 23 21 19 19 21 21 21 21 20 21 21 21 22 22 22 22 22 22 22 22 21 21 21 20 20 20 20 19 19 19 19 19 18 18 18 18 18
24 25 25 25 24 24 23 21 21 21 20 20 20 21 20 21 21 21 21 22 23 23 22 22 22 22 22 22 21 21 20 20 20 20 19 19 19 19 19 19 18 18 18 18
23 23 24 25 24 23 22 21 21 22 21 20 20 20 21 22 22 22 22 23 23 22 22 22 22 22 22 22 21 21 21 21 20 20 20 19 19 19 19 19 18 18 18 18
22 23 24 25 24 23 22 20 20 19 20 20 20 20 21 22 21 21 21 22 22 22 22 22 22 22 22 22 22 21 21 21 20 20 20 20 19 19 19 19 18 18 18 18
22 23 24 24 24 23 22 19 18 19 20 21 21 21 20 22 21 20 20 21 22 22 22 22 22 22 23 22 22 21 21 21 21 20 20 20 20 19 19 19 18 18 18 18
21 22 23 23 23 23 22 20 18 17 18 19 20 20 21 21 21 20 20 21 22 23 23 23 23 23 23 22 22 21 21 21 21 21 20 20 20 19 19 19 18 18 18 18
19 19 20 22 23 23 22 21 18 20 19 17 19 20 21 20 20 20 20 21 22 23 23 23 23 22 22 22 22 21 21 21 21 20 20 20 20 19 19 19 19 18 18 18
19 19 20 22 22 22 22 20 19 17 16 16 19 21 21 19 20 20 21 22 22 23 23 23 22 22 22 22 22 21 21 21 20 20 20 20 20 20 19 19 19 18 18 18
19 18 20 21 21 21 22 21 19 18 18 18 19 20 20 20 19 19 21 21 22 22 22 22 22 22 21 21 21 21 21 21 20 20 20 20 20 20 19 19 19 18 18 18
18 18 20 20 21 21 22 22 21 20 19 19 20 19 20 19 19 20 21 21 21 21 22 22 22 21 21 21 21 21 21 20 20 20 20 20 20 19 19 19 19 18 18 17
16 18 19 20 20 21 21 21 21 21 20 20 20 19 19 19 20 20 20 21 21 21 21 22 22 21 21 21 21 21 21 21 20 20 20 20 20 19 19 19 18 18 18 17
15 17 18 18 19 21 20 20 21 20 20 20 20 20 18 18 18 19 20 20 21 21 22 22 21 22 21 21 21 21 21 20 20 20 20 20 19 19 19 18 18 18 18 17
15 14 14 16 19 20 20 20 20 20 19 19 18 18 18 18 19 20 21 21 21 22 22 22 21 21 21 21 21 21 20 20 20 20 20 19 19 19 19 18 18 18 17 17
14 15 14 15 17 18 19 20 19 19 19 18 18 18 18 19 19 19 20 21 22 22 22 22 22 21 21 21 21 20 20 20 20 19 19 19 19 18 18 18 18 18 17 17
13 13 14 15 18 18 19 20 20 19 19 18 18 17 18 18 18 18 20 20 21 21 21 21 21 21 21 20 20 20 20 19 19 19 19 19 18 18 18 18 18 17 17 17
15 14 14 15 17 17 18 18 19 19 19 19 18 18 18 18 18 19 20 20 20 20 20 20 20 20 20 20 20 19 19 19 19 19 18 18 18 18 18 18 17 17 17 16
14 14 14 14 16 17 18 18 18 17 18 18 18 18 18 19 19 19 19 19 19 19 19 19 19 19 19 19 19 19 18 18 18 18 18 18 18 17 17 17 17 17 16 16
13 13 13 14 15 16 16 17 18 18 18 18 18 18 19 18 18 18 19 19 18 18 18 18 19 18 18 18 18 18 18 17 17 17 17 17 17 17 17 17 16 16 16 16
13 12 12 13 14 15 16 17 17 18 18 18 18 18 18 18 18 18 18 18 18 18 18 18 18 18 18 18 17 17 17 17 17 17 17 17 17 17 16 16 16 16 16 15
13 12 12 13 14 15 16 17 17 17 18 18 18 18 18 18 18 17 17 17 17 17 17 17 17 17 17 17 17 17 17 16 16 16 16 16 16 16 16 16 16 16 15 15
11 12 13 13 14 14 16 16 17 17 17 17 17 17 17 17 17 17 17 17 17 17 17 17 17 17 17 17 17 16 16 16 16 16 16 16 15 15 15 15 15 15 15 15
Wind_Speed
3 5 2 6 6 5 4 4 2 2 2 4 3 3 5 7 8 8 8 8 8 8 6 5 6 6 5 4 4 4 3 3 3 2 1 1 0 1 1 1 1 1 1 2
5 2 6 5 4 3 4 2 1 2 1 3 2 2 4 8 9 10 10 10 9 7 5 6 6 6 6 6 6 5 4 4 3 2 2 1 1 0 0 1 2 1 1 1
5 5 3 4 3 3 2 4 4 2 2 4 3 4 2 4 5 6 7 8 8 11 10 9 8 7 7 7 7 7 6 5 4 3 2 2 2 2 2 1 1 1 1 0
3 4 3 3 3 5 3 4 5 4 4 1 2 2 5 4 4 7 9 8 9 10 9 9 9 8 8 8 7 6 6 5 4 4 4 3 2 2 2 1 1 2 1 0
4 3 3 3 5 6 4 2 4 4 4 2 2 1 7 1 5 9 10 10 10 10 11 11 11 10 9 8 7 6 6 5 5 5 5 4 3 2 1 0 0 1 1 1
3 2 3 4 2 4 5 7 7 6 5 1 2 3 6 4 7 7 8 9 10 9 10 9 9 7 6 6 6 6 6 6 5 6 5 5 5 4 2 1 1 1 1 1
3 3 1 3 3 3 5 6 4 4 4 4 2 2 7 7 6 7 8 9 9 9 8 8 8 8 8 7 7 7 7 7 6 6 6 6 6 5 5 3 3 2 1 1
2 4 3 2 5 6 4 8 7 4 4 4 1 3 7 6 4 3 4 5 6 7 8 8 9 8 8 8 8 8 8 7 7 7 6 5 5 4 3 3 3 3 2 2
6 5 3 1 2 8 6 3 5 7 3 0 4 6 7 3 3 1 2 4 5 7 7 7 7 7 8 8 8 9 9 7 7 6 6 5 5 4 4 3 2 2 2 2
7 3 3 1 5 4 5 8 6 6 5 2 4 4 4 5 4 2 2 5 5 5 6 6 7 7 7 7 7 7 8 8 6 6 6 5 4 4 4 3 3 2 2 1
4 5 3 2 3 4 4 5 5 5 5 6 3 6 5 7 6 5 5 6 6 6 7 7 6 6 6 5 6 6 6 6 6 6 5 4 4 4 3 3 4 3 2 2
3 5 1 4 3 2 4 6 7 5 3 4 4 6 5 4 4 4 5 5 5 5 5 5 5 5 5 6 6 6 6 6 6 6 5 5 4 4 4 4 4 3 3 2
5 6 3 5 5 4 3 2 4 6 6 5 4 6 3 1 0 2 3 4 4 4 4 4 4 4 5 5 5 5 5 6 5 5 6 5 4 4 4 4 3 3 3 2
5 5 6 7 6 2 1 1 4 5 4 5 7 7 6 4 3 3 3 3 4 4 4 5 4 4 4 4 4 5 5 5 5 5 5 5 6 5 5 4 3 3 3 3
5 4 3 2 2 2 2 2 3 5 7 7 7 6 8 6 6 5 3 3 4 4 4 5 5 4 4 3 3 4 4 5 5 5 5 6 6 5 4 4 4 4 3 4
4 4 3 1 2 1 1 2 3 4 4 4 3 6 6 4 1 1 3 5 5 5 5 5 5 4 4 5 5 4 4 4 5 5 6 5 4 5 5 5 4 4 4 3
3 4 3 1 3 3 4 4 4 3 3 5 7 7 2 1 3 4 4 5 6 6 5 5 5 5 5 5 5 4 4 3 4 5 4 4 4 5 5 5 4 4 4 3
6 5 4 2 2 4 7 3 3 3 3 3 4 4 4 4 3 1 2 4 5 5 5 5 4 4 4 3 3 3 3 3 3 3 3 3 4 4 4 4 4 5 4 4
4 7 4 4 2 4 6 2 1 2 3 3 4 3 2 2 2 3 2 2 4 3 3 4 4 3 3 3 3 3 3 2 2 2 3 3 4 4 4 4 5 4 4 4
5 5 5 4 4 6 6 3 1 3 3 3 3 3 2 4 2 4 2 0 1 1 2 2 3 3 3 2 3 4 3 2 2 3 3 2 3 4 4 5 5 4 4 4
4 4 4 4 4 6 6 5 1 3 5 3 2 3 3 4 5 3 1 2 2 2 3 3 4 3 2 2 4 4 2 2 3 2 1 1 2 3 4 3 3 3 3 3
5 4 4 4 3 7 4 1 3 5 2 1 2 2 2 2 2 2 2 2 3 3 3 3 3 2 2 3 4 3 1 2 1 0 0 1 1 1 1 2 2 3 3 3
4 5 5 6 6 4 3 3 3 2 1 2 2 2 3 3 2 2 2 2 2 2 2 3 3 3 2 2 3 2 2 1 1 1 0 0 0 0 0 1 2 2 2 3
2 2 2 2 4 4 4 3 2 1 2 2 2 2 3 3 3 2 2 2 1 1 1 2 3 2 1 1 0 1 2 1 2 1 1 0 0 1 1 1 2 2 3 3
4 2 2 3 4 4 4 3 2 2 2 2 1 1 2 3 2 3 3 2 2 1 1 2 3 2 1 0 0 1 1 1 1 1 1 1 1 1 1 2 2 3 4 5
3 5 5 5 6 4 5 5 2 2 2 1 0 1 0 2 2 2 2 2 2 2 1 2 1 1 1 1 0 1 1 2 2 1 1 2 2 1 1 2 2 2 3 4
Wind_Direction
52 80 172 203 194 186 166 158 195 256 194 149 187 216 199 179 179 187 189 194 200 208 202 183 178 171 161 160 159 165 161 157 126 102 97 87 345 329 2 335 348 50 73 101
47 257 224 190 168 144 141 135 232 310 111 146 183 256 211 192 198 198 198 199 200 198 190 187 180 175 177 178 179 180 185 176 169 160 143 143 151 192 250 343 6 24 35 77
178 231 196 151 153 162 181 182 205 192 61 54 68 339 258 230 212 206 208 203 200 198 196 194 189 188 185 188 189 194 193 187 186 166 120 89 66 40 29 3 348 337 328 331
215 235 179 163 194 169 229 217 177 148 106 348 79 293 286 240 226 219 216 207 207 205 197 193 192 192 197 198 189 188 185 184 184 168 158 156 160 186 223 243 286 321 343 343
230 195 162 187 213 172 191 110 117 114 121 63 32 145 289 270 241 238 223 213 211 205 197 195 196 198 200 192 184 184 179 185 183 178 177 173 186 200 198 191 300 315 328 322
242 225 186 193 155 138 123 74 59 51 70 11 254 164 282 248 230 242 222 211 207 201 196 196 195 189 190 182 180 179 180 192 187 184 185 187 195 190 180 204 237 281 298 306
330 313 275 140 89 52 90 91 42 9 14 259 268 190 255 263 243 226 219 204 197 191 186 187 187 189 191 187 187 182 183 196 193 189 194 198 198 188 195 209 219 235 261 275
177 284 261 183 166 169 164 140 156 189 216 272 328 238 262 278 284 240 192 184 178 179 182 187 189 189 190 191 191 186 187 195 193 194 199 199 192 191 203 211 212 223 237 251
176 245 285 229 153 139 136 158 156 131 135 63 288 291 304 316 343 34 148 155 176 181 181 185 183 183 188 186 190 190 186 189 190 190 187 187 189 192 200 203 204 219 232 243
158 204 288 298 77 47 127 141 105 118 144 229 288 284 264 281 283 276 192 184 190 176 173 177 179 187 191 186 181 179 181 187 186 183 191 196 194 196 195 190 206 215 225 226
138 157 310 46 139 175 104 100 107 116 145 158 226 267 235 230 232 218 217 203 193 184 183 179 178 183 180 171 169 171 178 179 180 184 185 187 190 189 183 196 212 212 209 202
134 124 214 269 289 196 143 150 147 149 193 166 173 263 281 230 225 211 212 198 189 185 183 170 165 162 162 163 169 176 179 181 186 182 178 188 191 189 197 211 216 205 206 211
131 112 81 350 348 11 68 113 130 120 117 148 169 259 316 13 276 216 205 195 180 168 160 152 148 157 168 172 176 181 184 187 183 173 175 184 192 198 209 217 213 205 207 212
120 106 154 190 214 211 186 158 146 126 144 187 214 241 287 301 283 272 236 201 171 162 156 154 162 169 174 177 181 187 195 190 181 173 183 196 206 210 214 215 210 210 209 209
94 113 134 200 245 181 187 207 176 176 184 188 221 224 252 249 240 237 214 171 153 160 161 171 173 173 170 170 182 193 200 190 182 179 196 215 213 206 206 211 214 212 212 220
68 114 99 17 358 43 298 277 223 212 188 200 230 262 255 255 230 202 192 170 173 187 187 187 177 173 182 187 191 192 201 191 177 192 211 217 204 200 205 211 211 208 215 220
86 115 110 242 316 24 284 252 216 206 206 186 214 237 242 203 200 201 193 182 187 192 191 188 190 191 198 199 193 195 200 178 178 195 209 212 204 207 211 207 200 207 212 209
129 110 120 125 94 222 246 266 199 189 242 222 222 238 226 214 204 185 182 189 201 196 187 188 192 195 197 184 177 178 158 155 173 190 198 200 197 209 210 201 208 212 207 206
138 131 117 120 163 271 290 281 151 173 281 251 206 230 234 153 80 354 308 221 207 199 193 191 185 179 167 160 161 144 135 136 162 209 225 211 201 207 206 209 218 215 206 211
64 89 114 127 157 226 247 272 294 131 281 276 200 204 189 121 140 265 286 149 114 106 132 136 123 115 128 137 136 135 144 146 203 232 237 232 213 206 214 217 220 216 207 217
63 61 121 154 199 255 262 288 18 164 243 269 213 200 176 178 203 218 149 106 102 94 95 107 111 115 136 135 131 139 152 203 232 235 231 227 224 217 216 217 218 207 205 204
164 154 173 152 181 246 295 35 175 220 267 264 224 206 177 178 152 125 113 103 96 89 97 105 106 98 84 99 116 121 207 253 250 155 160 238 248 248 231 208 222 204 194 202
192 190 186 188 211 254 288 246 261 215 241 272 237 225 164 148 145 133 118 92 80 97 107 107 108 88 68 95 129 150 233 245 109 89 344 293 8 324 246 215 219 216 206 214
269 149 151 253 277 286 292 297 310 287 255 281 238 188 165 165 164 153 135 120 97 79 114 112 106 97 65 57 106 205 234 157 113 119 292 296 259 285 288 260 226 211 222 224
234 178 170 253 280 312 314 317 318 331 352 29 26 175 178 164 174 173 157 154 159 153 143 123 124 135 195 110 303 264 229 155 150 193 253 271 263 245 252 252 240 225 226 221
219 187 180 223 229 213 260 278 275 289 296 289 341 37 58 170 185 166 162 168 159 156 144 114 121 160 217 216 239 287 251 175 173 219 257 254 256 256 252 261 290 259 236 242
Height
1496 1502 1508 1505 1503 1505 1508 1513 1516 1513 1507 1510 1514 1514 1513 1513 1515 1517 1518 1519 1521 1523 1525 1528 1530 1531 1533 1534 1535 1536 1537 1538 1539 1540 1540 1541 1541 1542 1543 1543 1544 1544 1545 1545
1502 1505 1499 1498 1500 1503 1507 1514 1516 1512 1506 1510 1514 1514 1511 1512 1512 1513 1515 1517 1519 1522 1524 1526 1528 1530 1532 1533 1535 1536 1537 1538 1539 1540 1541 1541 1542 1542 1543 1544 1544 1545 1545 1545
1502 1500 1495 1498 1501 1506 1508 1512 1512 1513 1510 1510 1514 1518 1514 1511 1511 1513 1514 1515 1517 1519 1521 1524 1526 1528 1530 1532 1534 1535 1536 1538 1539 1540 1541 1541 1542 1542 1543 1544 1544 1545 1545 1545
1498 1494 1495 1498 1501 1503 1511 1502 1505 1509 1518 1526 1521 1535 1518 1512 1511 1510 1511 1513 1514 1517 1519 1522 1524 1526 1528 1530 1533 1534 1536 1537 1539 1540 1540 1541 1541 1542 1543 1543 1544 1545 1545 1545
1497 1493 1495 1499 1498 1498 1502 1500 1504 1511 1519 1528 1525 1533 1525 1513 1513 1508 1507 1508 1510 1513 1516 1519 1521 1524 1526 1529 1531 1533 1535 1536 1538 1539 1540 1540 1541 1542 1543 1544 1544 1545 1545 1545
1493 1490 1491 1492 1492 1494 1498 1505 1512 1519 1527 1539 1529 1534 1529 1516 1509 1504 1503 1505 1507 1510 1513 1516 1519 1522 1525 1527 1529 1531 1533 1535 1536 1537 1539 1540 1540 1541 1542 1543 1543 1544 1544 1544
1498 1492 1489 1489 1496 1498 1502 1518 1537 1539 1548 1544 1529 1531 1525 1505 1500 1499 1499 1500 1503 1507 1510 1513 1516 1519 1521 1524 1526 1529 1531 1533 1534 1536 1537 1538 1539 1540 1541 1542 1543 1543 1543 1543
1509 1509 1492 1489 1493 1501 1505 1514 1535 1546 1549 1542 1530 1531 1515 1499 1497 1495 1496 1498 1501 1504 1507 1510 1513 1516 1519 1521 1524 1526 1528 1530 1532 1534 1535 1537 1538 1539 1540 1541 1542 1542 1542 1542
1508 1507 1489 1487 1487 1493 1505 1513 1514 1531 1538 1543 1536 1525 1510 1498 1496 1495 1496 1497 1499 1502 1505 1508 1511 1514 1517 1519 1521 1524 1526 1528 1530 1532 1534 1535 1536 1538 1539 1540 1540 1541 1541 1541
1495 1503 1492 1488 1489 1493 1497 1507 1521 1533 1546 1548 1537 1530 1522 1504 1499 1497 1496 1496 1498 1500 1503 1506 1509 1512 1514 1517 1519 1522 1524 1526 1528 1530 1532 1533 1535 1536 1537 1538 1538 1539 1539 1539
1491 1502 1499 1494 1497 1501 1503 1509 1519 1530 1533 1545 1546 1533 1503 1500 1497 1496 1495 1495 1496 1498 1501 1504 1507 1510 1513 1515 1518 1520 1522 1524 1526 1528 1530 1532 1533 1534 1535 1536 1537 1537 1537 1537
1493 1503 1510 1501 1493 1491 1495 1503 1513 1524 1531 1537 1539 1529 1495 1495 1494 1494 1494 1494 1496 1498 1500 1503 1505 1508 1511 1514 1516 1518 1520 1522 1524 1526 1528 1529 1531 1532 1533 1533 1534 1535 1535 1536
1492 1504 1516 1513 1508 1499 1498 1502 1507 1515 1527 1536 1537 1522 1495 1494 1493 1493 1493 1493 1495 1497 1500 1502 1505 1507 1509 1512 1514 1517 1519 1520 1522 1524 1525 1527 1528 1529 1530 1531 1532 1533 1533 1533
1487 1502 1511 1518 1513 1504 1503 1502 1505 1512 1524 1529 1524 1513 1500 1496 1494 1493 1493 1493 1495 1497 1499 1501 1504 1506 1508 1511 1513 1516 1517 1519 1520 1522 1523 1524 1526 1527 1528 1529 1530 1530 1530 1530
1488 1502 1501 1502 1499 1499 1500 1500 1502 1505 1509 1515 1510 1508 1499 1495 1493 1492 1492 1493 1495 1496 1498 1500 1503 1505 1507 1509 1512 1514 1516 1517 1518 1520 1521 1522 1523 1524 1526 1527 1527 1527 1528 1527
1492 1501 1502 1503 1500 1499 1500 1499 1499 1500 1501 1503 1503 1503 1493 1492 1492 1491 1491 1492 1494 1496 1497 1499 1501 1503 1506 1508 1510 1512 1513 1515 1516 1518 1518 1520 1520 1521 1522 1523 1524 1524 1524 1524
1498 1502 1508 1512 1505 1501 1508 1499 1498 1498 1497 1498 1501 1496 1491 1491 1491 1490 1491 1491 1492 1494 1496 1497 1499 1502 1504 1506 1507 1509 1511 1513 1514 1515 1516 1517 1517 1518 1519 1520 1521 1521 1521 1521
1497 1505 1513 1516 1510 1519 1504 1492 1492 1494 1494 1493 1492 1491 1490 1489 1489 1490 1490 1491 1492 1494 1495 1497 1499 1500 1502 1504 1506 1508 1509 1510 1511 1512 1512 1514 1515 1515 1516 1517 1517 1517 1518 1517
1492 1501 1513 1520 1520 1513 1499 1492 1492 1495 1495 1490 1490 1489 1488 1488 1490 1490 1490 1491 1491 1493 1494 1496 1497 1499 1500 1502 1504 1505 1507 1508 1509 1510 1510 1511 1512 1513 1513 1513 1514 1514 1514 1514
1495 1498 1510 1518 1517 1518 1500 1490 1489 1492 1497 1489 1488 1488 1488 1489 1494 1492 1490 1490 1490 1492 1493 1494 1496 1498 1499 1501 1502 1503 1504 1505 1506 1508 1508 1509 1509 1510 1510 1511 1511 1512 1511 1511
1503 1507 1511 1515 1515 1508 1493 1488 1488 1502 1497 1488 1487 1487 1487 1488 1489 1489 1489 1489 1490 1491 1492 1493 1495 1496 1498 1500 1501 1502 1503 1503 1504 1505 1506 1507 1508 1508 1508 1508 1508 1508 1508 1508
1504 1508 1512 1514 1514 1509 1489 1488 1492 1492 1487 1486 1486 1486 1486 1486 1486 1487 1488 1488 1489 1490 1492 1493 1494 1495 1497 1498 1500 1501 1502 1503 1503 1504 1504 1505 1505 1505 1505 1505 1505 1505 1505 1504
1501 1500 1502 1502 1501 1492 1488 1488 1487 1487 1486 1486 1486 1486 1486 1486 1486 1486 1487 1488 1489 1490 1491 1492 1493 1494 1495 1496 1498 1499 1500 1501 1501 1502 1502 1502 1502 1503 1502 1502 1502 1501 1501 1501
1497 1496 1497 1497 1492 1489 1487 1486 1486 1486 1485 1485 1485 1485 1486 1485 1485 1486 1486 1488 1489 1490 1491 1491 1492 1493 1493 1495 1497 1498 1499 1499 1499 1499 1499 1499 1499 1499 1499 1499 1498 1498 1498 1497
1495 1494 1496 1495 1490 1487 1485 1485 1485 1484 1484 1483 1484 1484 1485 1485 1485 1486 1486 1487 1488 1489 1490 1490 1490 1491 1492 1493 1495 1496 1497 1497 1497 1497 1496 1496 1496 1495 1496 1495 1495 1494 1494 1494
1491 1492 1493 1492 1487 1487 1485 1484 1484 1484 1483 1483 1483 1483 1484 1484 1484 1485 1486 1487 1488 1488 1489 1489 1489 1490 1491 1492 1492 1494 1494 1494 1494 1493 1493 1493 1493 1492 1492 1491 1491 1490 1491 1490